sat.trackr.live / text

‹ back to catalog

STARLINK-4047

NORAD 53243 · 2022-086B

PAYLOAD ACTIVE UNKNOWN

§ Identity

Operator
Country
US
Launch date
2022-07-24
Launch site
AFETR
Launch vehicle
Mass (kg)
RCS (m²)

Purposes: comms

External: N2YO · Heavens-Above · Gunter

§ Orbital elements

Epoch: 2026-09-19T23:53:02.668128Z

Period
93.79 min
Inclination
53.1604°
Eccentricity
0.0001333
Mean motion
15.35409746 rev/d
Perigee alt
458.8 km
Apogee alt
460.6 km
Semi-major
6,837.8 km
B*
2.9520e-5
RAAN
38.6583°
Arg perigee
81.1958°
Mean anomaly
278.9196°
Rev number
23,077

§ Raw data

STARLINK-40471 53243U 22086B   26262.99516977  .00000650  00000+0  29520-4 0  99982 53243  53.1604  38.6583 0001333  81.1958 278.9196 15.35409746230778

JSON: /api/v1/satellites/53243 · /tle

For live sub-satellite position, see the globe view (requires WebGL).

§ Visibility from observer

Set your observer location to see the next 7 days of passes ≥ 10°. The values pass through the URL so the page stays shareable.

No JS? Fill the form by hand. The geolocation button needs JavaScript.